Regional Weather Roundup
Issued by NWS Little Rock, AR

Home | Current Version | Previous Version | Text Only | Print | Product List | Glossary Off
Versions: 1 2 3 4 5 6 7 8 9 10 11 12 13 14 15 16 17 18 19 20 21 22 23 24 25 26 27 28 29 30 31 32 33 34 35 36 37 38 39 40 41 42 43 44 45 46 47 48 49 50

709
ASUS44 KLZK 281705
RWRLZK

WEATHER ROUNDUP FOR ARKANSAS
NATIONAL WEATHER SERVICE LITTLE ROCK AR
1200 PM CDT WED SEP 28 2016

NOTE: "FAIR" INDICATES FEW OR NO CLOUDS BELOW 12,000 FEET WITH NO
SIGNIFICANT WEATHER AND/OR OBSTRUCTIONS TO VISIBILITY.

ARZ001-003-010-029-281800-
NORTHWEST ARKANSAS

CITY           SKY/WX    TMP DP  RH WIND       PRES   REMARKS
FAYETTEVILLE   SUNNY     75  56  51 VRB6      30.00S
FORT SMITH     SUNNY     81  49  32 W13       29.97S
HARRISON       SUNNY     75  53  46 NW10G17   29.98R
BENTONVILLE    SUNNY     73  52  46 N10       30.02R
ROGERS         SUNNY     73  56  54 N10G16    30.02R
SILOAM SPGS    SUNNY     75  52  43 N8        30.02R
HIGHFILL       SUNNY     76  56  49 N12       30.01R
SPRINGDALE     SUNNY     75  55  50 NW12      30.02S
$$

ARZ004-005-016-281800-
NORTH CENTRAL ARKANSAS

CITY           SKY/WX    TMP DP  RH WIND       PRES   REMARKS
BATESVILLE     SUNNY     82  55  39 W8        29.91S
FLIPPIN        SUNNY     77  52  41 N10       29.93S
MTN HOME       SUNNY     76  54  46 VRB3      29.94R
$$

ARZ040-041-281800-
WEST CENTRAL ARKANSAS

CITY           SKY/WX    TMP DP  RH WIND       PRES   REMARKS
MENA           SUNNY     81  55  41 W8        30.02F
MOUNT IDA      SUNNY     82  52  35 VRB5      29.97F
$$

ARZ009-017-025-026-028-281800-
NORTHEAST ARKANSAS

CITY           SKY/WX    TMP DP  RH WIND       PRES   REMARKS
CORNING          N/A     77  57  50 NW13      29.90R
JONESBORO      SUNNY     83  52  34 W13G20    29.88F
NEWPORT        SUNNY     82  54  37 W14       29.90S
WALNUT RIDGE   SUNNY     79  54  41 NW14G20   29.90R
BLYTHEVILLE    SUNNY     83  53  35 W9        29.88F
$$

ARZ022-023-033-042-044-281800-
CENTRAL ARKANSAS

CITY           SKY/WX    TMP DP  RH WIND       PRES   REMARKS
LITTLE ROCK    SUNNY     84  54  35 SW9       29.95F
JACKSONVILLE   SUNNY     82  54  37 SW9       29.94F
SEARCY         SUNNY     80  54  40 SW14G20   29.93F
HOT SPRINGS    SUNNY     82  55  39 W5        29.98F
RUSSELLVILLE   SUNNY     77  56  48 VRB3      29.95F
$$

ARZ036-281800-
EAST ARKANSAS

CITY           SKY/WX    TMP DP  RH WIND       PRES   REMARKS
WEST MEMPHIS   SUNNY     83  48  29 VRB6G17   29.91F
$$

ARZ050-053-066-070-073-281800-
SOUTHWEST ARKANSAS

CITY           SKY/WX    TMP DP  RH WIND       PRES   REMARKS
ARKADELPHIA    FAIR      80  60  50 W9        29.99F
TEXARKANA      SUNNY     83  49  30 SW9       30.02F
EL DORADO      SUNNY     79  57  46 SW8       30.03S
DE QUEEN       SUNNY     81  61  50 SW9       29.99F
$$

ARZ056-057-069-281800-
SOUTHEAST ARKANSAS

CITY           SKY/WX    TMP DP  RH WIND       PRES   REMARKS
PINE BLUFF     SUNNY     81  54  39 SW9       29.98F
STUTTGART      SUNNY     84  52  32 SW12      29.97F
MONTICELLO     SUNNY     81  55  40 W8        30.00F

$$






USA.gov is the U.S. government's official web portal to all federal, state and local government web resources and services.